{"data":{"norad_id":53974,"epoch":"2026-05-24T16:49:03.680256Z","epoch_age_seconds":94169,"freshness":"FRESH","line1":"1 53974U 22125L   26144.70073704  .00001370  00000+0  10416-3 0  9990","line2":"2 53974  53.2133 222.4962 0001620  90.7741 269.3437 15.08841338201087","mean_motion":15.08841338,"eccentricity":0.000162,"inclination_deg":53.2133,"raan_deg":222.4962,"arg_perigee_deg":90.7741,"mean_anomaly_deg":269.3437,"bstar":0.00010416,"rev_number":20108,"period_min":95.437470046304,"perigee_km":538.61860327593,"apogee_km":540.85999519688,"semimajor_km":6917.8762992364,"source":"CELESTRAK","updated_at":"2026-05-25T13:38:17.618479Z"}}